Home > Weather > Montego Bay > Past weeks

Flag for Jamaica Past Weather in Montego Bay, Jamaica — Yesterday and Last 2 Weeks

Now
81 °F

Passing clouds.


Feels Like: 86 °F
Forecast: 78 / 89 °F
Wind: 6 mph from East

Location: Montego Bay / Sangster

Current Time: Jun 30, 2016 at 2:03:28 AM

Latest Report: Jun 30, 2016 at 1:00 AM


Visibility: N/A

Pressure: 29.95 "Hg

Humidity: 84%

Dew Point: 75 °F

Location of Montego BayLocation

Past Weather in Montego Bay — Graph

°F

Montego Bay Temperature Yesterday

Maximum temperature yesterday: 90 °F (at 3:00 PM)
Minimum temperature yesterday: 77 °F (at 2:00 AM)
Average temperature yesterday: 84 °F

High & Low Weather Summary for the Past Weeks

 TemperatureHumidityPressure
High90 °F (Jun 15, 11:00 AM)100% (Jun 15, 2:00 AM)30.07 "Hg (Jun 15, 2:00 AM)
Low73 °F (Jun 21, 6:00 AM)55% (Jun 17, 9:00 AM)29.89 "Hg (Jun 18, 3:00 PM)
Average83 °F77%29.97 "Hg
* Reported Jun 15 12:00 AM — Jun 30 12:00 AM, Montego Bay, Weather by CustomWeather, © 2016

Note: Actual official high and low records may vary slightly from our data, if they occured in-between our weather recording intervals... More about our weather records

Advertising

Montego Bay Weather History for the Previous 24 Hours

Scroll right to see more
 ConditionsComfort  
Time TempWeatherWind HumidityBarometerVisibility
12:00 AM
Thu, Jun 30
81 °FPassing clouds.2 mph79%29.95 "HgN/A
11:00 PM
Wed, Jun 29
81 °FPassing clouds.3 mph79%29.95 "HgN/A
10:00 PM81 °FPassing clouds.3 mph84%29.98 "HgN/A
9:00 PM82 °FPassing clouds.5 mph79%29.95 "HgN/A
8:00 PM82 °FPassing clouds.7 mph79%29.95 "HgN/A
7:00 PM84 °FPassing clouds.9 mph74%29.92 "HgN/A
6:00 PM86 °FPassing clouds.15 mph70%29.92 "HgN/A
5:00 PM88 °FPassing clouds.16 mph70%29.92 "HgN/A
4:00 PM88 °FThunderstorms. Passing clouds.14 mph70%29.89 "HgN/A
3:00 PM90 °FThunderstorms. Passing clouds.14 mph67%29.92 "HgN/A
2:00 PM88 °FPassing clouds.15 mph75%29.92 "HgN/A
1:00 PM88 °FPassing clouds.14 mph70%29.95 "HgN/A
12:00 PM88 °FPassing clouds.15 mph75%29.95 "HgN/A
11:00 AM88 °FPassing clouds.15 mph70%29.98 "HgN/A
10:00 AM88 °FPassing clouds.14 mph70%29.98 "HgN/A
9:00 AM86 °FPassing clouds.9 mph75%29.98 "HgN/A
8:00 AM86 °FPassing clouds.7 mph70%29.98 "HgN/A
7:00 AM82 °FPassing clouds.2 mph74%29.95 "HgN/A
6:00 AM79 °FPassing clouds.6 mph74%29.95 "HgN/A
5:00 AM79 °FPassing clouds.5 mph79%29.92 "HgN/A
4:00 AM79 °FPassing clouds.3 mph84%29.92 "HgN/A
3:00 AM79 °FPassing clouds.5 mph84%29.92 "HgN/A
2:00 AM77 °FPassing clouds.6 mph83%29.92 "HgN/A
Weather by CustomWeather, © 2016

See weather overviewHow to use our weather pages